Total_Precipitation_Accumulation
0.79 0.94 0.97 0.88 0.83 0.88 0.95 1.02 1.09 1.06 1.03 0.95 0.85 0.78 0.78 0.78 0.72 0.62 0.50 0.47 0.45 0.40 0.37 0.36 0.38 0.44 0.48 0.52 0.58 0.67 0.75 0.83 0.95 1.12 1.38 1.67 1.90 2.14
0.99 1.09 1.11 1.10 1.06 0.97 1.01 1.05 1.09 1.15 1.10 0.90 0.84 0.85 0.78 0.64 0.65 0.58 0.48 0.50 0.45 0.40 0.37 0.34 0.33 0.38 0.41 0.42 0.40 0.42 0.47 0.51 0.56 0.61 0.72 0.87 1.05 1.27
1.15 1.26 1.30 1.33 1.30 1.16 1.11 1.08 1.08 1.17 1.09 0.89 0.84 0.85 0.73 0.59 0.56 0.54 0.51 0.49 0.43 0.44 0.39 0.34 0.32 0.33 0.37 0.38 0.37 0.36 0.37 0.38 0.41 0.44 0.49 0.55 0.59 0.68
1.24 1.41 1.48 1.42 1.30 1.20 1.18 1.12 1.09 1.18 1.12 1.00 1.00 0.94 0.85 0.75 0.67 0.61 0.53 0.49 0.48 0.54 0.48 0.38 0.34 0.32 0.31 0.31 0.31 0.30 0.31 0.32 0.33 0.34 0.36 0.40 0.41 0.42
1.28 1.33 1.36 1.42 1.34 1.27 1.19 1.12 1.10 1.20 1.21 1.12 1.18 1.18 1.06 0.92 0.81 0.69 0.61 0.60 0.49 0.48 0.48 0.43 0.40 0.36 0.33 0.31 0.30 0.29 0.27 0.27 0.29 0.31 0.32 0.36 0.36 0.36
1.26 1.29 1.32 1.32 1.35 1.40 1.30 1.24 1.26 1.30 1.31 1.28 1.29 1.43 1.32 1.12 0.95 0.80 0.68 0.63 0.56 0.44 0.46 0.50 0.47 0.41 0.36 0.32 0.30 0.29 0.30 0.29 0.27 0.29 0.29 0.31 0.37 0.42
1.16 1.12 1.18 1.35 1.43 1.46 1.34 1.31 1.37 1.36 1.35 1.39 1.38 1.48 1.49 1.33 1.07 0.84 0.76 0.74 0.68 0.59 0.53 0.46 0.43 0.40 0.36 0.36 0.35 0.33 0.30 0.29 0.29 0.27 0.28 0.31 0.35 0.45
1.10 1.04 1.01 1.09 1.20 1.28 1.24 1.19 1.23 1.28 1.34 1.37 1.43 1.51 1.57 1.48 1.29 1.10 0.96 0.84 0.79 0.76 0.77 0.69 0.57 0.54 0.45 0.38 0.40 0.40 0.37 0.34 0.31 0.28 0.26 0.26 0.29 0.39
0.99 0.94 0.81 0.77 0.96 1.04 1.15 1.17 1.12 1.11 1.16 1.30 1.42 1.45 1.58 1.63 1.54 1.32 1.21 1.09 0.91 0.87 0.91 0.88 0.79 0.68 0.54 0.49 0.54 0.45 0.41 0.39 0.37 0.36 0.32 0.27 0.25 0.28
0.88 0.86 0.85 0.84 0.86 0.94 1.06 1.13 1.12 1.07 1.05 1.08 1.20 1.38 1.53 1.68 1.65 1.53 1.44 1.29 1.07 0.95 0.94 0.90 0.83 0.76 0.64 0.58 0.59 0.52 0.46 0.42 0.40 0.44 0.52 0.51 0.37 0.31
0.98 1.01 1.01 0.94 0.94 0.89 0.92 0.99 1.02 1.07 1.03 1.02 1.06 1.23 1.40 1.52 1.65 1.58 1.46 1.29 1.10 0.96 0.91 0.85 0.78 0.78 0.72 0.61 0.53 0.51 0.43 0.40 0.39 0.41 0.54 0.78 0.85 0.67
1.19 1.15 1.06 0.94 0.87 0.81 0.84 0.90 0.89 0.88 0.96 0.99 0.98 1.05 1.19 1.30 1.45 1.43 1.30 1.26 1.09 0.94 0.81 0.77 0.70 0.73 0.75 0.64 0.56 0.50 0.45 0.43 0.41 0.45 0.61 0.93 1.08 0.94
1.23 1.17 1.11 1.00 0.84 0.77 0.72 0.75 0.78 0.82 0.89 0.95 1.04 1.14 1.27 1.38 1.37 1.33 1.29 1.15 1.05 0.85 0.67 0.73 0.68 0.64 0.63 0.58 0.53 0.51 0.47 0.44 0.43 0.46 0.55 0.80 1.06 1.02
1.37 1.27 1.19 1.03 0.80 0.73 0.66 0.66 0.68 0.68 0.82 0.92 0.98 1.08 1.19 1.31 1.39 1.42 1.39 1.23 1.03 0.90 0.81 0.80 0.74 0.68 0.61 0.53 0.51 0.51 0.53 0.51 0.49 0.49 0.49 0.64 0.77 1.02
1.41 1.46 1.29 1.10 0.92 0.80 0.79 0.76 0.70 0.67 0.79 0.90 0.89 0.92 0.97 1.09 1.34 1.54 1.62 1.54 1.26 0.99 0.88 0.82 0.75 0.73 0.72 0.59 0.49 0.47 0.51 0.55 0.53 0.53 0.53 0.56 0.68 0.87
1.40 1.44 1.29 1.17 1.01 0.88 0.85 0.78 0.68 0.66 0.72 0.80 0.84 0.88 0.97 1.07 1.22 1.40 1.59 1.63 1.47 1.10 0.92 0.86 0.80 0.81 0.77 0.67 0.57 0.47 0.44 0.48 0.52 0.55 0.62 0.65 0.75 0.86
1.44 1.51 1.44 1.33 1.23 1.10 1.01 0.96 0.91 0.85 0.78 0.78 0.89 0.94 1.00 1.01 1.09 1.22 1.44 1.55 1.42 1.09 0.88 0.87 0.91 0.93 0.90 0.86 0.73 0.56 0.50 0.45 0.47 0.57 0.68 0.69 0.73 0.77
1.26 1.41 1.40 1.31 1.24 1.21 1.16 1.10 1.04 0.97 0.91 0.90 0.94 0.99 1.01 1.03 1.09 1.19 1.30 1.38 1.34 1.14 0.95 0.84 0.92 1.00 0.95 0.86 0.72 0.60 0.52 0.50 0.51 0.63 0.70 0.68 0.65 0.68
1.02 1.20 1.19 1.16 1.15 1.17 1.14 1.06 0.99 0.99 1.01 0.98 0.93 0.98 1.03 1.05 1.08 1.15 1.20 1.28 1.30 1.24 1.09 0.96 0.93 0.94 0.83 0.66 0.56 0.55 0.56 0.56 0.62 0.66 0.69 0.68 0.60 0.58
0.86 0.99 1.04 1.05 1.08 1.14 1.12 1.11 1.07 1.08 1.10 1.05 1.02 1.03 1.10 1.13 1.10 1.11 1.18 1.20 1.25 1.28 1.24 1.09 0.94 0.87 0.78 0.67 0.60 0.53 0.50 0.55 0.64 0.65 0.65 0.69 0.65 0.64
0.88 0.93 0.98 1.00 1.03 1.10 1.12 1.12 1.12 1.14 1.14 1.14 1.14 1.14 1.19 1.24 1.15 1.09 1.15 1.21 1.18 1.21 1.17 1.03 0.93 0.97 0.99 0.97 0.77 0.56 0.53 0.52 0.56 0.62 0.67 0.72 0.69 0.69
0.95 0.95 1.00 1.02 1.02 1.03 1.05 1.06 1.08 1.13 1.14 1.14 1.19 1.21 1.21 1.23 1.16 1.13 1.12 1.17 1.12 1.08 1.09 1.13 1.23 1.26 1.15 1.02 0.79 0.66 0.65 0.64 0.63 0.63 0.61 0.62 0.62 0.59
0.98 0.97 0.97 0.95 0.94 0.97 0.99 1.01 1.09 1.13 1.13 1.12 1.17 1.22 1.23 1.20 1.16 1.14 1.13 1.13 1.16 1.18 1.24 1.31 1.38 1.33 1.16 1.04 0.90 0.80 0.78 0.78 0.75 0.70 0.64 0.58 0.50 0.45